Orbital Elements at Epoch 2459200.5 (2020-Dec-17.0) TDB
Reference: JPL 36 (heliocentric ecliptic J2000)
Element | Value | Uncertainty (1-sigma) | Units |
e | .1792393725687943 | 3.4014e-08 | |
a | 3.087736607563699 | 1.414e-08 | au |
q | 2.534292635366284 | 1.0213e-07 | au |
i | 3.16698709103336 | 4.6355e-06 | deg |
node | 31.18876267661659 | 6.7704e-05 | deg |
peri | 100.4419192026129 | 6.9002e-05 | deg |
M | 142.2903055113092 | 1.2912e-05 | deg |
tp | 2458417.193720692979 (2018-Oct-25.69372069) | 6.9279e-05 | TDB |
period | 1981.795313020219 5.43 | 1.3613e-05 3.727e-08 | d yr |
n | .1816534723010152 | 1.2478e-09 | deg/d |
Q | 3.641180579761114 | 1.6675e-08 | au |
|
| | Orbit Determination Parameters
Additional Information
|